Date String (YYYY-MM-DD hh:mm:ss) UTC,Instrument flags,Ambient pressure (hPa),Sample flow (lpm),Bypass flow (lpm),Sample temperature (°C),Ambient temperature (°C),ASC tube jacket temperature (°C),LED temperature (°C),Box temperature (°C),Sample RH (%),Span deviation,Mass concentration (μg/m³),Mass concentration (μg/m³),Mass concentration (μg/m³)
DateTimeUTC,F1_M11,P_M11,Q1_M11,Q2_M11,T1_M11,T2_M11,T3_M11,T4_M11,T5_M11,U1_M11,ZSPAN_M11,X2_M11,X0_M11,X1_M11
2022-01-21 15:00:00,,0824.7,5.02,0.00,22.2,21.5,00.0,31.3,23.9,14.8,-001.1,0003.56,0005.67,0003.31
2022-01-21 15:01:00,,0824.8,4.99,0.00,22.2,21.5,00.0,31.3,23.9,14.8,-000.2,0003.27,0004.67,0003.01
2022-01-21 15:02:00,,0824.9,5.02,0.00,22.2,21.4,00.0,31.3,23.8,14.8,0000.0,0002.95,0003.98,0002.66
2022-01-21 15:03:00,,0824.9,4.99,0.00,22.2,21.5,00.0,31.3,23.9,14.7,0000.0,0002.71,0003.37,0002.45
2022-01-21 15:04:00,,0824.9,4.99,0.00,22.2,22.2,00.0,31.3,24.1,14.7,0000.0,0002.51,0003.05,0002.29
2022-01-21 15:05:00,,0825.1,5.00,0.00,22.4,23.0,00.0,31.4,24.3,15.1,0000.0,0002.59,0003.18,0002.33
2022-01-21 15:06:00,,0825.1,5.01,0.00,22.5,23.3,00.0,31.4,24.6,15.2,0000.0,0002.97,0003.83,0002.65
2022-01-21 15:07:00,,0825.1,4.99,0.00,22.6,23.1,00.0,31.4,24.6,14.8,0000.0,0003.00,0003.85,0002.71
2022-01-21 15:08:00,,0825.1,5.00,0.00,22.6,22.9,00.0,31.4,24.5,14.6,0000.0,0002.94,0003.74,0002.69
2022-01-21 15:09:00,,0825.1,5.01,0.00,22.6,22.7,00.0,31.4,24.4,14.8,0000.0,0003.10,0003.89,0002.87
2022-01-21 15:10:00,,0825.1,4.99,0.00,22.6,22.5,00.0,31.4,24.4,14.8,-000.9,0003.30,0004.51,0003.13
2022-01-21 15:11:00,,0825.1,5.02,0.00,22.6,22.4,00.0,31.4,24.4,14.7,-001.4,0003.44,0004.95,0003.24
2022-01-21 15:12:00,,0825.2,5.00,0.00,22.6,22.3,00.0,31.5,24.3,14.8,-001.3,0003.63,0006.36,0003.40
2022-01-21 15:13:00,,0825.2,5.01,0.00,22.6,22.2,00.0,31.5,24.3,14.8,-001.7,0003.92,0008.08,0003.63
2022-01-21 15:14:00,,0825.3,4.98,0.00,22.5,22.1,00.0,31.4,24.3,14.8,-002.1,0004.19,0008.50,0003.87
2022-01-21 15:15:00,,0825.2,5.00,0.00,22.5,22.0,00.0,31.5,24.3,14.7,-002.2,0004.59,0009.42,0004.21
2022-01-21 15:16:00,,0825.3,5.01,0.00,22.5,22.0,00.0,31.5,24.3,14.5,-002.2,0004.83,0010.30,0004.47
2022-01-21 15:17:00,,0825.3,4.99,0.00,22.5,21.9,00.0,31.4,24.3,14.4,-002.5,0004.89,0010.33,0004.56
2022-01-21 15:18:00,,0825.3,5.01,0.00,22.5,21.9,00.0,31.4,24.2,14.4,-002.6,0005.12,0010.68,0004.77
2022-01-21 15:19:00,,0825.4,4.98,0.00,22.5,21.9,00.0,31.4,24.2,14.5,-002.7,0005.56,0011.43,0005.15
2022-01-21 15:20:00,,0825.4,5.01,0.00,22.5,21.8,00.0,31.4,24.2,14.6,-002.7,0006.03,0012.08,0005.58
2022-01-21 15:21:00,,0825.4,4.99,0.00,22.4,21.8,00.0,31.4,24.1,14.6,-002.8,0006.47,0013.52,0005.99
2022-01-21 15:22:00,,0825.4,5.01,0.00,22.4,21.7,00.0,31.4,24.1,14.6,-002.7,0006.98,0014.64,0006.46
2022-01-21 15:23:00,,0825.4,4.98,0.00,22.4,21.7,00.0,31.4,24.1,14.5,-002.7,0007.45,0015.00,0006.91
2022-01-21 15:24:00,,0825.4,5.02,0.00,22.4,21.7,00.0,31.4,24.1,14.4,-002.7,0007.72,0014.41,0007.17
2022-01-21 15:25:00,,0825.5,4.99,0.00,22.4,21.7,00.0,31.4,24.1,14.3,-002.6,0007.92,0014.69,0007.35
2022-01-21 15:26:00,,0825.5,5.00,0.00,22.3,21.6,00.0,31.4,24.1,14.2,-002.4,0007.99,0015.37,0007.44
2022-01-21 15:27:00,,0825.4,5.00,0.00,22.3,21.6,00.0,31.4,24.1,14.4,-002.4,0008.20,0015.15,0007.63
2022-01-21 15:28:00,,0825.4,5.01,0.00,22.3,21.6,00.0,31.4,24.1,14.2,-002.3,0008.51,0015.79,0007.88
2022-01-21 15:29:00,,0825.4,5.01,0.00,22.3,21.6,00.0,31.3,24.1,14.2,-002.2,0008.49,0015.72,0007.88
2022-01-21 15:30:00,,0825.5,4.99,0.00,22.3,21.7,00.0,31.3,24.0,14.2,-002.1,0008.14,0015.07,0007.59
2022-01-21 15:31:00,,0825.5,5.01,0.00,22.4,22.2,00.0,31.4,24.1,14.1,-002.0,0007.83,0014.63,0007.28
2022-01-21 15:32:00,,0825.5,5.00,0.00,22.5,22.9,00.0,31.4,24.4,14.1,-001.9,0007.54,0013.34,0007.00
2022-01-21 15:33:00,,0825.6,5.00,0.00,22.6,23.5,00.0,31.4,24.6,14.0,-001.8,0007.63,0013.10,0007.10
2022-01-21 15:34:00,,0825.5,4.99,0.00,22.7,23.2,00.0,31.5,24.6,13.9,-001.8,0007.77,0013.15,0007.26
2022-01-21 15:35:00,,0825.6,4.99,0.00,22.7,22.9,00.0,31.5,24.5,14.0,-001.9,0007.86,0013.19,0007.37
2022-01-21 15:36:00,,0825.5,5.00,0.00,22.6,22.7,00.0,31.5,24.5,14.0,-001.9,0007.84,0013.13,0007.39
2022-01-21 15:37:00,,0825.5,5.02,0.00,22.6,22.5,00.0,31.5,24.4,14.1,-002.2,0007.87,0012.89,0007.41
2022-01-21 15:38:00,,0825.5,4.99,0.00,22.6,22.4,00.0,31.5,24.4,14.1,-002.5,0007.81,0012.92,0007.33
2022-01-21 15:39:00,,0825.5,5.01,0.00,22.6,22.2,00.0,31.5,24.4,14.1,-002.6,0007.66,0012.40,0007.20
2022-01-21 15:40:00,,0825.5,5.00,0.00,22.6,22.2,00.0,31.5,24.3,14.1,-002.6,0007.87,0012.75,0007.34
2022-01-21 15:41:00,,0825.6,4.98,0.00,22.6,22.1,00.0,31.5,24.3,14.2,-002.6,0008.45,0013.97,0007.89
2022-01-21 15:42:00,,0825.6,5.00,0.00,22.6,22.0,00.0,31.5,24.3,14.1,-002.7,0008.80,0014.45,0008.25
2022-01-21 15:43:00,,0825.6,5.01,0.00,22.5,22.0,00.0,31.5,24.3,14.0,-002.6,0008.81,0014.43,0008.28
2022-01-21 15:44:00,,0825.6,4.99,0.00,22.5,22.0,00.0,31.5,24.3,14.0,-002.7,0008.34,0014.32,0007.88
2022-01-21 15:45:00,,0825.6,5.01,0.00,22.5,21.9,00.0,31.5,24.2,14.0,-002.8,0007.76,0013.62,0007.34
2022-01-21 15:46:00,,0825.5,4.99,0.00,22.5,21.9,00.0,31.5,24.2,14.0,-002.6,0007.28,0012.99,0006.88
2022-01-21 15:47:00,,0825.5,5.02,0.00,22.5,21.9,00.0,31.5,24.2,14.0,-002.6,0007.03,0012.66,0006.63
2022-01-21 15:48:00,,0825.6,4.98,0.00,22.4,21.8,00.0,31.5,24.2,14.1,-002.5,0006.69,0011.69,0006.33
2022-01-21 15:49:00,,0825.6,5.01,0.00,22.4,21.8,00.0,31.4,24.1,14.2,-002.1,0006.32,0010.90,0005.98
2022-01-21 15:50:00,,0825.5,4.99,0.00,22.4,21.8,00.0,31.4,24.1,14.2,-002.0,0005.89,0010.32,0005.59
2022-01-21 15:51:00,,0825.6,5.01,0.00,22.4,21.7,00.0,31.4,24.1,14.4,-002.0,0005.53,0009.88,0005.29
2022-01-21 15:52:00,,0825.6,5.00,0.00,22.4,21.7,00.0,31.4,24.1,14.4,-001.5,0004.89,0008.58,0004.66
2022-01-21 15:53:00,,0825.7,5.00,0.00,22.3,21.7,00.0,31.4,24.1,14.8,-001.3,0004.35,0007.80,0004.16
2022-01-21 15:54:00,,0825.7,5.00,0.00,22.3,21.7,00.0,31.4,24.1,14.8,-001.3,0004.09,0007.75,0003.89
2022-01-21 15:55:00,,0825.7,5.00,0.00,22.3,21.7,00.0,31.4,24.0,14.9,-001.6,0003.90,0007.35,0003.71
2022-01-21 15:56:00,,0825.7,4.99,0.00,22.3,21.6,00.0,31.4,24.0,14.9,-001.9,0003.76,0006.95,0003.57
2022-01-21 15:57:00,,0825.8,5.01,0.00,22.3,21.6,00.0,31.3,24.0,14.7,-002.1,0003.63,0006.68,0003.44
2022-01-21 15:58:00,,0825.9,5.01,0.00,22.3,21.6,00.0,31.3,24.0,15.2,-002.6,0003.67,0006.88,0003.46
2022-01-21 15:59:00,,0825.9,5.02,0.00,22.2,21.6,00.0,31.3,23.9,15.3,-002.8,0004.14,0007.78,0003.85
